Beale AFB, CA

7:58 PM PDT on May 25, 2018 (GMT -0700)
Beale Air Force Base

Weather History for KBAB - October, 2013

Change the Weather History Date:

Tuesday, October 22, 2013

  Actual Average Record
Temperature  
Mean Temperature 64 °F -  
Max Temperature 82 °F 73 °F 84 °F (2003)
Min Temperature 46 °F 48 °F 44 °F (1996)
Degree Days  
Heating Degree Days 1    
Growing Degree Days 14 (Base 50)    
Moisture  
Dew Point 40 °F    
Average Humidity 44    
Maximum Humidity 84    
Minimum Humidity 21    
Precipitation  
Precipitation 0.00 in - - ()
Sea Level Pressure  
Sea Level Pressure 30.17 in    
Wind  
Wind Speed 3 mph (North)    
Max Wind Speed 8 mph    
Max Gust Speed -    
Visibility 10 miles    
Events      
Averages and records for this station are not official NWS values.
T = Trace of Precipitation, MM = Missing Value Source: NWS Daily Summary

Daily Weather History Graph

Daily Weather History Graph

Search for Another Location

Airport or City:

Astronomy

Oct. 22, 2013 Rise Set
Actual Time 7:22 AM PDT 6:16 PM PDT
Civil Twilight 6:55 AM PDT 6:43 PM PDT
Nautical Twilight 6:24 AM PDT 7:15 PM PDT
Astronomical Twilight 5:53 AM PDT 7:46 PM PDT
Moon 9:02 PM PDT (10/22) 10:54 AM PDT (10/22)
Length of Visible Light 11h 48m
Length of Day
10h 53m
Waning Gibbous, 86% of the Moon is Illuminated
Oct 22
Waning Gibbous
Oct 26
Last Quarter
Nov 3
New
Nov 9
First Quarter
Nov 17
Full

Hourly Weather History & Observations

Time (PDT) Temp. Windchill Dew Point Humidity Pressure Visibility Wind Dir Wind Speed Gust Speed Precip Events Conditions
12:58 AM 58.3 °F - 39.4 °F 49% 30.18 in 10.0 mi Calm Calm - N/A   Clear
1:58 AM 55.6 °F - 38.7 °F 53% 30.18 in 10.0 mi ENE 1.2 mph - N/A   Clear
2:58 AM 57.0 °F - 38.7 °F 50% 30.18 in 10.0 mi Calm Calm - N/A   Clear
3:58 AM 52.2 °F - 37.4 °F 57% 30.19 in 10.0 mi NNE 2.3 mph - N/A   Clear
4:58 AM 47.3 °F - 39.7 °F 75% 30.19 in 10.0 mi West 4.6 mph - N/A   Clear
5:58 AM 46.4 °F 44.3 °F 40.8 °F 81% 30.21 in 10.0 mi NW 4.6 mph - N/A   Clear
6:58 AM 48.7 °F - 44.2 °F 84% 30.22 in 10.0 mi Calm Calm - N/A   Clear
7:58 AM 51.6 °F - 42.1 °F 70% 30.22 in 9.0 mi ENE 3.5 mph - N/A   Clear
8:58 AM 58.3 °F - 39.4 °F 49% 30.23 in 10.0 mi Calm Calm - N/A   Clear
9:58 AM 65.5 °F - 43.5 °F 45% 30.23 in 10.0 mi WNW 2.3 mph - N/A   Clear
10:58 AM 71.1 °F - 38.7 °F 31% 30.22 in 10.0 mi NNW 4.6 mph - N/A   Clear
11:58 AM 74.5 °F - 38.1 °F 27% 30.21 in 10.0 mi WNW 8.1 mph - N/A   Clear
12:58 PM 77.9 °F - 40.5 °F 26% 30.19 in 10.0 mi NW 6.9 mph - N/A   Clear
1:58 PM 80.4 °F - 41.2 °F 25% 30.15 in 10.0 mi NNW 8.1 mph - N/A   Clear
2:58 PM 81.9 °F - 41.2 °F 24% 30.14 in 9.0 mi NW 5.8 mph - N/A   Clear
3:58 PM 82.4 °F - 38.1 °F 21% 30.13 in 7.0 mi NNW 5.8 mph - N/A   Clear
4:58 PM 82.0 °F - 40.6 °F 23% 30.12 in 10.0 mi NNW 5.8 mph - N/A   Clear
5:58 PM 76.8 °F - 41.9 °F 29% 30.11 in 10.0 mi NW 4.6 mph - N/A   Clear
6:58 PM 70.3 °F - 40.5 °F 34% 30.11 in 10.0 mi ENE 3.5 mph - N/A   Clear
7:58 PM 64.8 °F - 39.2 °F 39% 30.12 in 10.0 mi East 3.5 mph - N/A   Clear
8:58 PM 61.5 °F - 38.7 °F 43% 30.13 in 10.0 mi NNE 4.6 mph - N/A   Clear
9:58 PM 60.3 °F - 35.8 °F 40% 30.14 in 10.0 mi ENE 2.3 mph - N/A   Clear
10:58 PM 56.7 °F - 36.0 °F 46% 30.14 in 10.0 mi East 2.3 mph - N/A   Clear
11:58 PM 57.7 °F - 34.7 °F 42% 30.14 in 10.0 mi East 6.9 mph - N/A   Clear